Grand Island, NE

11:42 PM CDT on March 23, 2017 (GMT -0500)
Central Nebraska Regional

Weather History for KGRI - May, 2013

Change the Weather History Date:

Sunday, May 12, 2013

  Actual Average Record
Temperature  
Mean Temperature 56 °F 60 °F  
Max Temperature 70 °F 71 °F 95 °F (1962)
Min Temperature 41 °F 48 °F 31 °F (1953)
Degree Days  
Heating Degree Days 9 6  
Month to date heating degree days 161 95  
Since 1 July heating degree days 6087 6097  
Cooling Degree Days 0 1  
Month to date cooling degree days 0 12  
Year to date cooling degree days 6 23  
Growing Degree Days 6 (Base 50)    
Moisture  
Dew Point 33 °F    
Average Humidity 52    
Maximum Humidity 79    
Minimum Humidity 25    
Precipitation  
Precipitation T in 0.15 in 1.35 in (1919)
Month to date precipitation 1.19 1.56  
Year to date precipitation 7.79 7.10  
Snow  
Snow 0.00 in 0.00 in - ()
Month to date snowfall 0.7 0.1  
Since 1 July snowfall 35.2 29.1  
Snow Depth 0.00 in    
Sea Level Pressure  
Sea Level Pressure 30.18 in    
Wind  
Wind Speed 9 mph (SSE)    
Max Wind Speed 18 mph    
Max Gust Speed 23 mph    
Visibility 10 miles    
Events      
T = Trace of Precipitation, MM = Missing Value Source: NWS Daily Summary

Daily Weather History Graph

Daily Weather History Graph

Search for Another Location

Airport or City:

Trip Planner

Search our weather history database for the weather conditions in past years. The results will help you decide how hot, cold, wet, or windy it might be!

Date:

Astronomy

May. 12, 2013 Rise Set
Actual Time 6:18 AM CDT 8:41 PM CDT
Civil Twilight 5:47 AM CDT 9:12 PM CDT
Nautical Twilight 5:08 AM CDT 9:51 PM CDT
Astronomical Twilight 4:26 AM CDT 10:33 PM CDT
Moon 8:14 AM CDT (5/12) 11:09 PM CDT (5/12)
Length of Visible Light 15h 25m
Length of Day
14h 23m
Waxing Crescent, 7% of the Moon is Illuminated
May 12
Waxing Crescent
May 17
First Quarter
May 24
Full
May 31
Last Quarter
Jun 8
New

Hourly Weather History & Observations

Time (CDT) Temp. Windchill Dew Point Humidity Pressure Visibility Wind Dir Wind Speed Gust Speed Precip Events Conditions
12:53 AM 45.0 °F 42.6 °F 28.0 °F 52% 30.27 in 10.0 mi ESE 4.6 mph - N/A   Mostly Cloudy
1:53 AM 44.1 °F - 27.0 °F 51% 30.28 in 10.0 mi Calm Calm - N/A   Clear
2:53 AM 44.1 °F - 28.9 °F 55% 30.28 in 10.0 mi Calm Calm - N/A   Mostly Cloudy
3:53 AM 44.1 °F - 30.9 °F 60% 30.28 in 10.0 mi Calm Calm - N/A   Overcast
4:53 AM 41.0 °F - 36.0 °F 82% 30.27 in 10.0 mi Calm Calm - N/A   Mostly Cloudy
5:53 AM 41.0 °F 36.4 °F 30.0 °F 65% 30.25 in 10.0 mi ESE 6.9 mph - N/A   Mostly Cloudy
6:53 AM 43.0 °F 39.5 °F 30.0 °F 60% 30.26 in 10.0 mi SSE 5.8 mph - 0.00 in   Mostly Cloudy
7:53 AM 46.9 °F - 28.0 °F 48% 30.26 in 10.0 mi SSE 8.1 mph - N/A   Clear
8:53 AM 52.0 °F - 26.1 °F 37% 30.24 in 10.0 mi SSE 16.1 mph - N/A   Clear
9:53 AM 55.9 °F - 26.1 °F 32% 30.24 in 10.0 mi SSE 12.7 mph - 0.01 in   Scattered Clouds
10:53 AM 60.1 °F - 26.1 °F 27% 30.22 in 10.0 mi SSE 17.3 mph - N/A   Scattered Clouds
11:53 AM 62.1 °F - 27.0 °F 26% 30.20 in 10.0 mi SE 15.0 mph 23.0 mph N/A   Clear
12:53 PM 66.0 °F - 30.0 °F 26% 30.19 in 10.0 mi SE 15.0 mph - N/A   Mostly Cloudy
1:53 PM 66.9 °F - 32.0 °F 27% 30.17 in 10.0 mi South 15.0 mph 18.4 mph N/A   Clear
2:53 PM 68.0 °F - 35.1 °F 30% 30.15 in 10.0 mi SSW 12.7 mph 19.6 mph N/A   Clear
3:53 PM 69.1 °F - 35.1 °F 29% 30.13 in 10.0 mi SE 9.2 mph - N/A   Clear
4:53 PM 70.0 °F - 37.0 °F 30% 30.11 in 10.0 mi SW 11.5 mph 19.6 mph N/A   Clear
5:53 PM 69.1 °F - 37.9 °F 32% 30.10 in 10.0 mi SSW 8.1 mph - N/A   Clear
6:53 PM 68.0 °F - 39.9 °F 36% 30.08 in 10.0 mi South 10.4 mph - N/A   Clear
7:53 PM 66.0 °F - 41.0 °F 40% 30.07 in 10.0 mi SSE 8.1 mph - N/A   Clear
8:53 PM 61.0 °F - 41.0 °F 48% 30.08 in 10.0 mi SSE 8.1 mph - N/A   Clear
9:53 PM 59.0 °F - 41.0 °F 51% 30.08 in 10.0 mi SSE 9.2 mph - N/A   Clear
10:53 PM 55.9 °F - 43.0 °F 62% 30.08 in 10.0 mi South 10.4 mph - N/A   Clear
11:53 PM 55.0 °F - 43.0 °F 64% 30.08 in 10.0 mi South 12.7 mph - N/A   Clear